#timestamp,LO_Frequency,Hit,StdDev 
1594328415.3,286047004.3,N
1594328435.1,286047003.3,N
1594328455.8,286047001.8,N
1594328475.7,286047001.9,N
1594328495.5,286047002.8,N
1594328515.4,286047002.3,N
1594328535.2,286047003.8,N
1594328555.0,286047003.8,N
1594328555.9,286047003.8,N
1594328575.8,286047003.6,N
1594328595.6,286047003.7,N
1594328615.4,286047005.2,N
1594328635.3,286047005.7,N
1594328655.1,286047006.8,N
1594328675.9,286047004.7,N
1594328695.7,286047007.1,Y
1594328715.5,286047001.1,P
1594328735.4,286046999.6,N
1594328755.2,286046998.3,N
1594328775.1,286047000.5,N
1594328776.0,286047000.5,N
1594328795.8,286047002.3,N
1594328815.6,286047005.3,N
1594328835.5,286047006.7,Y
1594328855.3,286047007.1,P
1594328875.1,286047007.5,N
1594328895.9,286047004.9,N
1594328915.7,286047005.7,N
1594328935.6,286047003.3,N
1594328955.4,286047003.2,N
1594328975.2,286047005.9,N
1594328995.1,286047004.2,N
1594328996.0,286047004.2,N
1594329015.8,286047003.2,N
1594329035.6,286047006.4,Y
1594329055.5,286047003.9,P
1594329075.3,286047003.8,P
1594329095.2,286047007.6,P
1594329115.9,286047007.4,Y
1594329135.7,286047001.4,P
1594329155.6,286047005.8,P
1594329175.4,286047005.0,N
1594329195.2,286047009.0,Y
1594329215.1,286047005.6,P
1594329216.0,286047005.6,P
1594329235.8,286047002.5,P
1594329255.7,286047002.1,N
1594329275.5,286047001.5,N
1594329295.3,286047002.5,N
1594329315.2,286047001.3,N
1594329335.0,286047002.1,N
1594329335.9,286047002.1,N
1594329355.7,286047002.4,N
1594329375.6,286047000.1,N
1594329395.4,286047000.9,N
1594329415.3,286047000.6,N
1594329435.1,286046998.2,N
1594329436.0,286046998.2,N
1594329455.8,286047001.0,N
1594329475.7,286047001.2,N
1594329495.5,286046998.5,N
1594329515.3,286047001.2,N
1594329535.2,286046998.8,N
1594329555.0,286046999.3,N
1594329555.9,286046999.3,N
1594329575.8,286047000.1,N
1594329595.6,286047003.8,N
1594329615.4,286047005.1,N
1594329635.3,286047006.6,Y
1594329655.1,286047009.2,P
1594329675.8,286047007.9,N
1594329695.7,286047010.8,P
1594329715.5,286047010.1,N
1594329735.4,286047012.0,Y
1594329755.2,286047001.9,P
1594329775.0,286047001.4,N
1594329775.9,286047001.4,N
1594329795.8,286047002.3,N
1594329815.6,286047000.4,N
1594329835.5,286046998.1,N
1594329855.3,286047000.3,N
1594329875.1,286047000.5,N
1594329895.9,286047000.8,N
1594329915.7,286047000.3,N
1594329935.5,286047000.6,N
1594329955.4,286047002.1,N
1594329975.2,286047000.7,N
1594329995.0,286046998.2,N
1594329995.9,286046998.2,N
1594330015.8,286046999.4,N
1594330035.6,286046999.3,N
1594330055.5,286046999.2,N
1594330075.3,286046997.9,N
1594330095.1,286046996.1,N
1594330115.9,286046997.3,N
1594330135.7,286046997.0,N
1594330155.5,286046996.9,N
1594330175.4,286046999.5,N
1594330195.2,286046996.8,N
1594330215.1,286046996.6,N
1594330216.0,286046996.6,N
1594330235.8,286046999.1,N
1594330255.6,286046998.6,N
1594330275.5,286046998.9,N
1594330295.3,286046996.9,N
1594330315.1,286046999.1,N
1594330335.9,286046999.6,N
1594330355.7,286046997.0,N
1594330375.5,286046999.4,N
1594330395.4,286046996.9,N
1594330415.2,286046998.1,N
1594330435.1,286047000.9,N
1594330436.0,286047000.9,N
1594330455.8,286046999.4,N
1594330475.6,286047001.2,N
1594330495.5,286046998.7,N
1594330515.3,286046996.6,N
1594330535.1,286046999.2,N
1594330555.9,286046996.5,N
1594330575.7,286046998.9,N
1594330595.6,286047000.5,N
1594330615.4,286047000.3,N
1594330635.2,286047002.2,N
1594330655.1,286047001.4,N
1594330656.0,286047001.4,N
1594330675.8,286047001.8,N
1594330695.6,286047004.4,N
1594330715.5,286047003.7,N
1594330735.3,286047006.0,N
1594330755.2,286047005.2,N
1594330775.9,286047009.0,Y
1594330795.7,286047012.3,P
1594330815.6,286047011.2,N
1594330835.4,286047014.1,N
1594330855.2,286047020.0,Y
1594330875.1,286047011.4,P
1594330876.0,286047011.4,P
1594330895.8,286047015.1,P
1594330915.7,286047013.8,Y
1594330935.5,286047000.6,P
1594330955.3,286046998.9,N
1594330975.2,286046999.8,N
1594330995.0,286047001.6,N
1594330995.9,286047001.6,N
1594331015.7,286047001.8,N
1594331035.6,286047003.9,N
1594331055.4,286047004.9,N
1594331075.3,286047010.5,N
1594331095.1,286047014.5,Y
1594331096.0,286047014.5,P
1594331115.8,286047014.3,N
1594331135.7,286047018.8,P
1594331155.5,286047020.3,Y
1594331175.4,286047010.8,P
1594331195.2,286047011.9,P
1594331215.0,286047014.2,P
1594331215.9,286047014.2,Y
1594331235.8,286047005.3,P
1594331255.6,286047005.1,N
1594331275.4,286047003.2,N
1594331295.3,286047001.7,N
1594331315.1,286047003.7,N
1594331335.9,286047003.7,N
1594331355.7,286047004.3,N
1594331375.5,286047003.7,N
1594331395.4,286046999.2,N
1594331415.2,286046995.7,N
1594331435.0,286046992.1,N
1594331435.9,286046992.1,N
1594331455.8,286046991.9,N
1594331475.6,286046994.0,N
1594331495.5,286046994.8,N
1594331515.3,286046992.9,N
1594331535.1,286046990.6,N
1594331555.9,286046990.5,N
1594331575.7,286046991.8,N
1594331595.5,286046993.6,N
1594331615.4,286046992.5,N
1594331635.2,286046992.8,N
1594331655.0,286046993.2,N
1594331656.0,286046993.2,N
1594331675.8,286046992.9,N
1594331695.6,286046996.0,N
1594331715.5,286046995.4,N
1594331735.3,286046993.6,N
1594331755.1,286046994.3,N
1594331775.9,286046994.4,N
1594331795.7,286046997.8,N
1594331815.5,286046998.9,N
1594331835.4,286046996.9,N
1594331855.2,286047001.2,N
1594331875.1,286047002.3,N
1594331876.0,286047002.3,N
1594331895.8,286047001.0,N
1594331915.6,286047011.9,Y
1594331935.5,286047006.3,P
1594331955.3,286047007.8,N
1594331975.1,286047010.5,N
1594331995.9,286047009.3,N
